Location: Tierra del Sol
(32.6128°N, 116.3319°W)
Time: 13:44:47
(UTC-07:00)

Amateur Radio Satellites - All Passes

Search period start: 27 April 2015 13:14
Search period end: 28 April 2015 13:14
Location: Tierra del Sol, 32.6128°N, 116.3319°W

Satellite Date Start Highest point End Downlink Frequencies (MHz)
Time Altitude Azimuth
CUBEBUG 1 27 Apr 13:21:55 13:24:07 13° 291° (WNW) 13:26:07 437.445
ITUPSAT 1 27 Apr 13:22:04 13:24:38 15° 92° (E) 13:27:27 437.325
Oscar 19 27 Apr 13:29:57 13:35:04 82° 78° (ENE) 13:40:17 437.125/150
BEESAT 27 Apr 13:50:14 13:54:28 32° 97° (E) 13:58:44 436.000
SWISSCUBE 27 Apr 13:52:58 13:57:23 38° 98° (E) 14:01:48 437.505
TISAT 1 27 Apr 13:54:45 13:58:20 26° 288° (WNW) 14:01:49 437.305
AO-7 27 Apr 14:03:10 14:06:12 13° 55° (NE) 14:09:49 29.400- 29.500
ITAMSAT 1 27 Apr 14:09:17 14:14:20 57° 74° (ENE) 14:19:26 435.822/435.867
HORYU 2 27 Apr 14:30:14 14:31:53 12° 68° (ENE) 14:33:47 437.375
RS-15 27 Apr 14:35:20 14:46:12 73° 301° (WNW) 14:57:16 29.354- 29.394
VERMONT LUNAR 27 Apr 14:35:20 14:38:21 32° 146° (SE) 14:41:25 437.305
Cosmos 2504 27 Apr 14:45:39 14:53:25 32° 287° (WNW) 15:00:55 435.465 / 435.565
KKS-1 27 Apr 14:49:05 14:52:38 23° 95° (E) 14:56:16 437.445
Gurwin Techsat 1B 27 Apr 14:51:05 14:56:21 63° 259° (WSW) 15:01:38 435.225
ITUPSAT 1 27 Apr 14:58:17 15:02:47 43° 287° (WNW) 15:07:16 437.325
JAS-2 27 Apr 15:21:51 15:29:06 44° 71° (ENE) 15:36:16 435.910
PHONESAT 2.4 27 Apr 15:24:48 15:27:50 27° 145° (SE) 15:30:54 2401.200-2431.200
BEESAT 27 Apr 15:28:34 15:32:08 21° 290° (WNW) 15:35:33 436.000
SWISSCUBE 27 Apr 15:31:46 15:34:59 18° 291° (WNW) 15:38:01 437.505
STARS 27 Apr 15:37:54 15:42:16 54° 100° (E) 15:46:38 437.465
AO-7 27 Apr 15:49:37 15:57:50 74° 71° (ENE) 16:06:07 29.400- 29.500
ITAMSAT 1 27 Apr 15:51:47 15:54:17 13° 269° (W) 15:56:26 435.822/435.867
GONETS M04 27 Apr 15:55:52 16:04:03 49° 90° (E) 16:12:27
HORYU 2 27 Apr 16:03:46 16:08:09 51° 260° (W) 16:12:32 437.375
VERMONT LUNAR 27 Apr 16:12:32 16:15:46 42° 340° (NNW) 16:19:00 437.305
PCSat 27 Apr 16:14:53 16:17:59 16° 50° (NE) 16:21:18 145.827
KKS-1 27 Apr 16:25:30 16:29:13 25° 289° (WNW) 16:32:51 437.445
DANDE 27 Apr 16:38:12 16:40:40 20° 87° (E) 16:43:43 436.750
RS-15 27 Apr 16:53:37 17:01:08 19° 327° (NNW) 17:08:18 29.354- 29.394
PHONESAT 2.4 27 Apr 17:02:26 17:05:56 52° 338° (NNW) 17:09:27 2401.200-2431.200
JAS-2 27 Apr 17:07:05 17:14:09 35° 265° (W) 17:20:57 435.910
MOZHAYETS 4 27 Apr 17:07:23 17:11:52 52° 100° (E) 17:16:18
Cosmos 2499 27 Apr 17:08:28 17:14:46 23° 85° (E) 17:21:23 435.465 / 435.565
CUTE-I 27 Apr 17:16:41 17:20:14 19° 68° (ENE) 17:23:58 437.470
STARS 27 Apr 17:16:47 17:18:19 11° 292° (WNW) 17:19:35 437.465
CUSAT 1 27 Apr 17:25:43 17:29:07 49° 283° (WNW) 17:33:35 437.405
Cubesat XI-IV 27 Apr 17:26:21 17:30:29 24° 69° (ENE) 17:34:45 437.490
AO-7 27 Apr 17:45:44 17:51:26 19° 268° (W) 17:56:38 29.400- 29.500
VERMONT LUNAR 27 Apr 17:51:05 17:53:44 21° 357° (N) 17:56:24 437.305
GONETS M04 27 Apr 17:53:37 18:01:13 31° 288° (WNW) 18:08:37
PCSat 27 Apr 17:56:34 18:01:56 64° 248° (WSW) 18:07:16 145.827
ISS 27 Apr 18:11:54 18:15:03 44° 41° (NE) 18:18:10 145.825
DANDE 27 Apr 18:22:04 18:24:04 14° 295° (WNW) 18:26:11 436.750
PRISM 27 Apr 18:26:43 18:28:19 12° 92° (E) 18:30:09 437.425
PHONESAT 2.4 27 Apr 18:41:42 18:44:39 23° 355° (N) 18:47:36 2401.200-2431.200
MOZHAYETS 4 27 Apr 18:46:47 18:48:41 12° 292° (WNW) 18:50:18
M-CUBED/EXP-1 PRIME 27 Apr 18:49:02 18:52:47 38° 102° (ESE) 18:56:14 437.505
CUBESAT XI-V 27 Apr 18:50:08 18:54:36 50° 99° (E) 18:59:06 437.345
CUTE-I 27 Apr 18:54:57 19:00:01 44° 261° (W) 19:05:05 437.470
SO-50 27 Apr 18:58:08 18:59:47 12° 45° (NE) 19:01:41 436.795
Cosmos 2499 27 Apr 18:58:36 19:07:24 64° 279° (W) 19:16:00 435.465 / 435.565
HO-68 27 Apr 19:03:55 19:07:07 14° 60° (ENE) 19:10:48 435.675
Cubesat XI-IV 27 Apr 19:05:35 19:10:26 34° 263° (W) 19:15:13 437.490
GOMX 1 27 Apr 19:26:06 19:26:47 10° 67° (ENE) 19:27:45 467.674
VERMONT LUNAR 27 Apr 19:28:51 19:31:49 28° 13° (NNE) 19:34:47 437.305
AUBIESAT-1 27 Apr 19:29:05 19:33:02 67° 288° (WNW) 19:36:38 437.475
BRITE-PL 27 Apr 19:47:23 19:51:02 32° 73° (ENE) 19:54:51 437.365/2234.400
ISS 27 Apr 19:49:54 19:51:07 11° 233° (SW) 19:52:11 145.825
DOVE 4 27 Apr 19:49:58 19:51:59 14° 68° (ENE) 19:54:16 437.250
STRAND 1 27 Apr 19:51:48 19:56:54 83° 286° (WNW) 20:02:02 437.568
PRISM 27 Apr 20:00:11 20:04:00 38° 286° (WNW) 20:07:46 437.425
COMPASS 1 27 Apr 20:13:15 20:16:09 19° 71° (ENE) 20:19:12 437.405
CINEMA 3 27 Apr 20:16:54 20:18:59 14° 68° (ENE) 20:21:20 145.822/145.860
PHONESAT 2.4 27 Apr 20:20:24 20:23:32 28° 12° (NNE) 20:26:40 2401.200-2431.200
M-CUBED/EXP-1 PRIME 27 Apr 20:25:30 20:27:15 12° 298° (WNW) 20:28:45 437.505
CUBESAT XI-V 27 Apr 20:29:29 20:31:41 13° 291° (WNW) 20:33:38 437.345
SO-50 27 Apr 20:36:06 20:41:04 84° 243° (WSW) 20:45:56 436.795
SEEDS 27 Apr 20:41:09 20:45:17 52° 76° (ENE) 20:49:28 437.485
Oscar 11 27 Apr 20:44:15 20:47:00 17° 70° (ENE) 20:49:54 145.826/435.025
HO-68 27 Apr 20:46:49 20:54:01 89° 80° (E) 21:01:17 435.675
ZACube-1 27 Apr 20:52:26 20:53:15 11° 67° (ENE) 20:54:22 437.345
AAUSAT CUBESAT 2 27 Apr 20:52:35 20:56:38 48° 75° (ENE) 21:00:44 437.432
CANX-2 27 Apr 20:53:28 20:57:45 78° 257° (WSW) 21:02:06 2200.000
GOMX 1 27 Apr 21:00:26 21:04:29 50° 261° (W) 21:08:43 467.674
CUTE 1.7 + AOD 2 27 Apr 21:02:16 21:06:33 68° 260° (W) 21:10:51 437.475
VERMONT LUNAR 27 Apr 21:06:07 21:09:28 72° 210° (SSW) 21:12:50 437.305
DX 1 27 Apr 21:22:23 21:24:44 15° 69° (ENE) 21:27:17 434.975-435.025
DOVE 4 27 Apr 21:25:25 21:29:24 40° 263° (W) 21:33:33 437.250
BRITE-PL 27 Apr 21:27:23 21:29:47 15° 268° (W) 21:32:03 437.365/2234.400
RS-15 27 Apr 21:30:39 21:39:10 24° 38° (NE) 21:48:24 29.354- 29.394
Cosmos 2491 27 Apr 21:34:25 21:41:20 29° 86° (E) 21:48:34 435.465 / 435.565
CUBEBUG 2 27 Apr 21:34:25 21:38:40 56° 75° (ENE) 21:43:05 437.445
DELFI C3 27 Apr 21:47:33 21:51:37 74° 77° (ENE) 21:55:42 145.870
COMPASS 1 27 Apr 21:47:59 21:51:41 28° 264° (W) 21:55:19 437.405
YUBILEINY 27 Apr 21:48:26 21:57:03 62° 80° (E) 22:05:39 435.215
CINEMA 3 27 Apr 21:51:42 21:55:48 42° 262° (W) 22:00:05 145.822/145.860
O/OREOS (USA 219) 27 Apr 21:54:40 21:59:15 77° 289° (WNW) 22:03:49 437.305
UWE-3 27 Apr 21:55:20 21:59:40 81° 78° (ENE) 22:04:10 435.000/436.395/437.385
FUNcube-1 27 Apr 21:58:25 22:02:42 67° 77° (ENE) 22:07:07 145.935
PHONESAT 2.4 27 Apr 21:58:27 22:02:02 87° 212° (SSW) 22:05:37 2401.200-2431.200
UKube-1 27 Apr 22:00:12 22:04:12 39° 74° (ENE) 22:08:14 .
HUMSAT D 27 Apr 22:00:49 22:04:32 31° 73° (ENE) 22:08:21 437.325/437.525
ESTCUBE 1 27 Apr 22:09:53 22:11:34 12° 68° (ENE) 22:13:30 437.505/2401.250
Oscar 11 27 Apr 22:19:00 22:22:56 33° 263° (W) 22:26:52 145.826/435.025
50 SAT 27 Apr 22:23:45 22:27:20 34° 74° (ENE) 22:31:01 437.505
ZACube-1 27 Apr 22:24:54 22:29:09 56° 260° (W) 22:33:31 437.345
TIGRISAT 27 Apr 22:31:25 22:34:56 22° 94° (E) 22:38:32 435.000
AAUSAT CUBESAT 2 27 Apr 22:31:46 22:32:35 10° 270° (W) 22:33:06 437.432
CUBEBUG 1 27 Apr 22:36:31 22:39:41 21° 71° (ENE) 22:43:00 437.445
UNISAT 6 27 Apr 22:36:36 22:40:27 26° 95° (E) 22:44:18 437.425
VELOX 1 27 Apr 22:37:15 22:41:28 49° 75° (ENE) 22:45:44 145.980
HO-68 27 Apr 22:39:48 22:42:44 12° 271° (W) 22:45:03 435.675
POLYITAN 1 27 Apr 22:40:31 22:41:43 11° 91° (E) 22:43:15 437.675
Cosmos 2504 27 Apr 22:55:53 22:56:03 10° 61° (ENE) 22:56:57 435.465 / 435.565
AISAT 27 Apr 22:55:57 23:00:20 88° 77° (ENE) 23:04:45 437.250
QB50P1 27 Apr 22:56:06 22:58:59 18° 94° (E) 23:02:00 145.935-145.965
DX 1 27 Apr 22:56:40 23:00:42 37° 262° (W) 23:04:44 434.975-435.025
ANTELSAT 27 Apr 23:18:06 23:22:49 80° 100° (E) 23:27:24 437.575/2403.000
QB50P2 27 Apr 23:22:12 23:26:13 38° 98° (E) 23:30:15 145.880/145.840
JUGNU 27 Apr 23:23:12 23:26:37 16° 167° (SSE) 23:30:06 437.505
Cosmos 2491 27 Apr 23:29:24 23:37:49 51° 282° (WNW) 23:46:16 435.465 / 435.565
HUMSAT D 27 Apr 23:37:37 23:40:23 16° 267° (W) 23:43:01 437.325/437.525
PHONESAT 2.4 27 Apr 23:38:09 23:39:56 13° 219° (SW) 23:41:37 2401.200-2431.200
UKube-1 27 Apr 23:38:16 23:40:33 14° 268° (W) 23:42:36 .
NANOSAT C BR1 27 Apr 23:38:22 23:42:37 60° 100° (E) 23:46:51 145.865
RS-15 27 Apr 23:41:54 23:53:38 85° 62° (ENE) 00:05:51 29.354- 29.394
POPSAT HIP 1 27 Apr 23:42:42 23:47:00 69° 101° (E) 23:51:17 437.405
ESTCUBE 1 27 Apr 23:43:40 23:48:04 51° 261° (W) 23:52:27 437.505/2401.250
SPROUT 27 Apr 23:46:38 23:50:26 33° 73° (ENE) 23:54:19 437.525
YUBILEINY 27 Apr 23:46:47 23:53:17 23° 275° (W) 23:59:21 435.215
BUGSAT 1 27 Apr 23:53:55 23:58:04 63° 101° (E) 00:02:15 437.445
50 SAT 28 Apr 00:00:14 00:02:18 13° 268° (W) 00:04:10 437.505
TIGRISAT 28 Apr 00:07:37 00:11:43 29° 288° (WNW) 00:15:38 435.000
DUCHIFAT 1 28 Apr 00:11:35 00:15:46 52° 285° (WNW) 00:19:55 145.980
CUBEBUG 1 28 Apr 00:12:18 00:15:57 26° 264° (W) 00:19:32 437.445
UNISAT 6 28 Apr 00:13:18 00:17:09 25° 289° (WNW) 00:20:51 437.425
POLYITAN 1 28 Apr 00:13:47 00:17:57 46° 285° (WNW) 00:22:05 437.675
VELOX 1 28 Apr 00:17:00 00:18:22 11° 269° (W) 00:19:27 145.980
ITUPSAT 1 28 Apr 00:26:20 00:27:33 11° 67° (ENE) 00:29:06 437.325
QB50P1 28 Apr 00:31:08 00:34:55 29° 287° (WNW) 00:38:36 145.935-145.965
AIST 1 28 Apr 00:33:11 00:37:30 81° 275° (W) 00:41:48
TISAT 1 28 Apr 00:41:44 00:45:51 62° 259° (W) 00:50:00 437.305
Cosmos 2504 28 Apr 00:43:18 00:51:11 79° 83° (E) 00:58:31 435.465 / 435.565
BEESAT 28 Apr 00:52:50 00:56:31 23° 70° (ENE) 01:00:20 436.000
SWISSCUBE 28 Apr 00:55:31 00:59:28 27° 71° (ENE) 01:03:31 437.505
QB50P2 28 Apr 00:59:24 01:01:50 14° 290° (WNW) 01:04:03 145.880/145.840
JUGNU 28 Apr 01:10:29 01:15:03 23° 176° (S) 01:19:38 437.505
BEESAT 3 28 Apr 01:15:26 01:18:56 29° 113° (ESE) 01:22:32 437.485
BEESAT 2 28 Apr 01:20:17 01:23:43 27° 112° (ESE) 01:27:15 435.950
SPROUT 28 Apr 01:24:00 01:26:39 15° 267° (W) 01:29:08 437.525
SRMSAT 28 Apr 01:25:38 01:29:24 17° 169° (SSE) 01:33:13 437.500
KKS-1 28 Apr 01:44:38 01:46:29 13° 68° (ENE) 01:48:35 437.445
Oscar 19 28 Apr 01:46:21 01:51:14 42° 98° (E) 01:56:09 437.125/150
RS-15 28 Apr 01:56:49 02:05:10 21° 256° (WSW) 02:12:51 29.354- 29.394
ITUPSAT 1 28 Apr 02:00:14 02:05:00 64° 259° (W) 02:09:45 437.325
GONETS M04 28 Apr 02:13:20 02:18:43 18° 67° (ENE) 02:24:39
CUSAT 1 28 Apr 02:25:22 02:29:11 15° 65° (ENE) 02:33:44 437.405
ITAMSAT 1 28 Apr 02:27:08 02:31:35 30° 96° (E) 02:36:08 435.822/435.867
BEESAT 28 Apr 02:30:05 02:34:15 29° 263° (W) 02:38:21 436.000
STARS 28 Apr 02:30:53 02:34:31 27° 72° (ENE) 02:38:15 437.465
SWISSCUBE 28 Apr 02:33:20 02:37:17 25° 265° (W) 02:41:07 437.505
AIST 2 28 Apr 02:36:16 02:40:26 62° 116° (ESE) 02:44:40 435.215
Cosmos 2504 28 Apr 02:39:48 02:43:39 14° 278° (W) 02:46:49 435.465 / 435.565
BEESAT 3 28 Apr 02:53:56 02:57:00 19° 308° (NW) 02:59:59 437.485
BEESAT 2 28 Apr 02:58:37 03:01:50 21° 307° (NW) 03:04:59 435.950
JUGNU 28 Apr 02:59:02 03:03:31 22° 186° (S) 03:07:56 437.505
Gurwin Techsat 1B 28 Apr 03:11:52 03:17:11 77° 101° (ESE) 03:22:30 435.225
SRMSAT 28 Apr 03:13:24 03:18:00 23° 178° (S) 03:22:35 437.500
KKS-1 28 Apr 03:18:30 03:22:46 47° 260° (W) 03:27:03 437.445
DANDE 28 Apr 03:19:51 03:26:42 32° 73° (ENE) 03:34:13 436.750
Oscar 19 28 Apr 03:26:38 03:30:19 19° 292° (WNW) 03:33:49 437.125/150
AO-7 28 Apr 03:56:58 04:04:06 32° 97° (E) 04:11:26 29.400- 29.500
HORYU 2 28 Apr 03:59:37 04:03:53 42° 99° (E) 04:08:07 437.375
CUSAT 1 28 Apr 04:04:59 04:13:04 81° 82° (E) 04:21:22 437.405
MOZHAYETS 4 28 Apr 04:05:06 04:09:05 30° 73° (ENE) 04:13:08
ITAMSAT 1 28 Apr 04:06:42 04:11:00 26° 290° (WNW) 04:15:13 435.822/435.867
STARS 28 Apr 04:07:38 04:10:59 21° 265° (W) 04:14:14 437.465
GONETS M04 28 Apr 04:07:49 04:16:41 78° 266° (W) 04:25:27
AIST 2 28 Apr 04:17:51 04:19:29 12° 313° (NW) 04:20:55 435.215
JAS-2 28 Apr 04:22:38 04:28:22 47° 98° (E) 04:33:34 435.910
JUGNU 28 Apr 04:49:02 04:51:55 14° 195° (SSW) 04:54:41 437.505
Gurwin Techsat 1B 28 Apr 04:55:02 04:56:37 11° 295° (WNW) 04:57:51 435.225
Cosmos 2499 28 Apr 04:56:56 05:03:39 34° 74° (ENE) 05:10:06 435.465 / 435.565
SRMSAT 28 Apr 05:02:18 05:06:35 20° 188° (S) 05:10:50 437.500
DANDE 28 Apr 05:02:25 05:10:11 52° 266° (W) 05:18:20 436.750
M-CUBED/EXP-1 PRIME 28 Apr 05:32:11 05:36:22 31° 68° (ENE) 05:40:38 437.505
HORYU 2 28 Apr 05:37:41 05:40:12 14° 292° (WNW) 05:42:30 437.375
MOZHAYETS 4 28 Apr 05:42:47 05:46:20 21° 266° (W) 05:49:46
AO-7 28 Apr 05:49:12 05:57:06 48° 293° (WNW) 06:04:55 29.400- 29.500
Cubesat XI-IV 28 Apr 05:49:20 05:51:37 13° 91° (E) 05:54:16 437.490
CUBESAT XI-V 28 Apr 05:49:27 05:53:23 29° 73° (ENE) 05:57:24 437.345
CUSAT 1 28 Apr 05:49:48 05:55:13 19° 273° (W) 06:00:13 437.405
JAS-2 28 Apr 06:08:49 06:13:03 19° 295° (WNW) 06:16:46 435.910
GONETS M04 28 Apr 06:10:13 06:12:22 11° 280° (W) 06:13:37
AUBIESAT-1 28 Apr 06:11:15 06:16:00 74° 72° (ENE) 06:20:48 437.475
PRISM 28 Apr 06:45:21 06:49:30 80° 77° (ENE) 06:53:40 437.425
Cosmos 2499 28 Apr 06:50:05 06:56:45 34° 272° (W) 07:02:55 435.465 / 435.565
PCSat 28 Apr 06:50:58 06:55:39 32° 109° (ESE) 07:00:28 145.827
SRMSAT 28 Apr 06:53:10 06:55:09 12° 196° (SSW) 06:57:00 437.500
STRAND 1 28 Apr 07:03:03 07:08:10 89° 78° (ENE) 07:13:18 437.568
M-CUBED/EXP-1 PRIME 28 Apr 07:07:16 07:11:10 24° 261° (W) 07:15:01 437.505
CUTE-I 28 Apr 07:16:21 07:21:40 76° 285° (WNW) 07:27:00 437.470
Cubesat XI-IV 28 Apr 07:26:57 07:32:11 59° 286° (WNW) 07:37:24 437.490
CUBESAT XI-V 28 Apr 07:27:17 07:30:52 21° 266° (W) 07:34:17 437.345
BRITE-PL 28 Apr 07:55:56 07:59:42 20° 93° (E) 08:03:49 437.365/2234.400
O/OREOS (USA 219) 28 Apr 08:09:17 08:13:46 86° 252° (WSW) 08:18:13 437.305
HO-68 28 Apr 08:21:00 08:26:05 21° 93° (E) 08:31:27 435.675
SEEDS 28 Apr 08:32:10 08:33:46 12° 91° (E) 08:35:38 437.485
PCSat 28 Apr 08:34:25 08:39:05 28° 304° (NW) 08:43:41 145.827
AAUSAT CUBESAT 2 28 Apr 08:42:56 08:43:42 11° 90° (E) 08:44:45 437.432
CANX-2 28 Apr 08:44:01 08:47:29 25° 95° (E) 08:51:02 2200.000
CUTE 1.7 + AOD 2 28 Apr 08:52:33 08:56:12 28° 96° (E) 08:59:54 437.475
YUBILEINY 28 Apr 08:53:40 08:56:00 12° 81° (E) 08:59:13 435.215
GOMX 1 28 Apr 09:05:30 09:10:46 67° 100° (E) 09:16:14 467.674
ISS 28 Apr 09:12:54 09:14:05 12° 127° (SE) 09:15:23 145.825
TIGRISAT 28 Apr 09:27:48 09:29:12 12° 67° (ENE) 09:30:53 435.000
DOVE 4 28 Apr 09:27:50 09:33:05 75° 101° (E) 09:38:24 437.250
CUBEBUG 2 28 Apr 09:31:02 09:34:17 19° 93° (E) 09:37:40 437.445
UNISAT 6 28 Apr 09:32:37 09:34:50 14° 68° (ENE) 09:37:18 437.425
DELFI C3 28 Apr 09:33:13 09:35:13 14° 92° (E) 09:37:25 145.870
BRITE-PL 28 Apr 09:33:20 09:38:20 43° 286° (WNW) 09:43:33 437.365/2234.400
COMPASS 1 28 Apr 09:35:26 09:39:35 64° 100° (E) 09:43:43 437.405
Cosmos 2491 28 Apr 09:44:56 09:53:43 67° 81° (E) 10:02:30 435.465 / 435.565
UWE-3 28 Apr 09:50:26 09:54:12 25° 94° (E) 09:58:02 435.000/436.395/437.385
CINEMA 3 28 Apr 09:50:28 09:55:29 65° 101° (E) 10:00:27 145.822/145.860
FUNcube-1 28 Apr 09:52:23 09:55:37 19° 93° (E) 09:58:56 145.935
SEEDS 28 Apr 10:05:51 10:09:50 40° 285° (WNW) 10:13:45 437.485
HO-68 28 Apr 10:07:14 10:14:15 58° 289° (WNW) 10:21:13 435.675
Oscar 11 28 Apr 10:10:25 10:14:43 61° 100° (E) 10:18:58 145.826/435.025
QB50P2 28 Apr 10:11:56 10:14:35 17° 70° (ENE) 10:17:24 145.880/145.840
ANTELSAT 28 Apr 10:12:34 10:16:47 40° 73° (ENE) 10:21:08 437.575/2403.000
AAUSAT CUBESAT 2 28 Apr 10:15:38 10:19:38 45° 285° (WNW) 10:23:35 437.432
ZACube-1 28 Apr 10:18:10 10:22:29 40° 98° (E) 10:26:46 437.345
CANX-2 28 Apr 10:20:02 10:23:19 21° 288° (WNW) 10:26:27 2200.000
NANOSAT C BR1 28 Apr 10:27:07 10:30:30 25° 72° (ENE) 10:33:59 145.865
CUTE 1.7 + AOD 2 28 Apr 10:28:55 10:31:58 19° 289° (WNW) 10:34:51 437.475
POPSAT HIP 1 28 Apr 10:31:32 10:35:05 28° 72° (ENE) 10:38:44 437.405
VELOX 1 28 Apr 10:33:55 10:36:03 14° 92° (E) 10:38:26 145.980
BUGSAT 1 28 Apr 10:40:25 10:43:33 23° 72° (ENE) 10:46:46 437.445
YUBILEINY 28 Apr 10:42:56 10:51:46 82° 95° (E) 11:00:37 435.215
GOMX 1 28 Apr 10:45:49 10:48:28 13° 292° (WNW) 10:50:49 467.674
SO-50 28 Apr 10:45:58 10:50:33 88° 298° (WNW) 10:55:20 436.795
AIST 1 28 Apr 10:46:22 10:48:50 15° 74° (ENE) 10:51:29
ISS 28 Apr 10:47:03 10:50:09 43° 319° (NW) 10:53:17 145.825
DX 1 28 Apr 10:49:10 10:53:25 50° 100° (E) 10:57:40 434.975-435.025
AISAT 28 Apr 10:51:49 10:55:24 24° 96° (E) 10:59:04 437.250
DUCHIFAT 1 28 Apr 10:59:16 11:03:23 62° 76° (ENE) 11:07:33 145.980
TIGRISAT 28 Apr 11:01:04 11:05:29 56° 260° (W) 11:10:02 435.000
POLYITAN 1 28 Apr 11:02:00 11:06:12 71° 77° (ENE) 11:10:26 437.675
AIST 2 28 Apr 11:04:14 11:05:49 12° 48° (NE) 11:07:34 435.215
CUBEBUG 2 28 Apr 11:06:43 11:11:05 35° 287° (WNW) 11:15:21 437.445
DELFI C3 28 Apr 11:06:52 11:10:30 32° 286° (WNW) 11:14:04 145.870
UNISAT 6 28 Apr 11:06:52 11:11:14 46° 261° (W) 11:15:41 437.425
DOVE 4 28 Apr 11:08:29 11:10:19 11° 293° (WNW) 11:11:48 437.250
BEESAT 3 28 Apr 11:15:39 11:19:42 63° 60° (ENE) 11:23:40 437.485
QB50P1 28 Apr 11:18:45 11:22:56 72° 260° (W) 11:27:09 145.935-145.965
BEESAT 2 28 Apr 11:21:02 11:25:05 58° 60° (ENE) 11:29:04 435.950
HUMSAT D 28 Apr 11:24:31 11:28:51 71° 283° (WNW) 11:33:06 437.325/437.525
UWE-3 28 Apr 11:26:44 11:30:41 26° 288° (WNW) 11:34:28 435.000/436.395/437.385
UKube-1 28 Apr 11:27:53 11:32:09 57° 285° (WNW) 11:36:23 .
FUNcube-1 28 Apr 11:27:54 11:32:00 31° 287° (WNW) 11:35:57 145.935
Cosmos 2504 28 Apr 11:28:19 11:30:10 11° 81° (E) 11:32:57 435.465 / 435.565
CINEMA 3 28 Apr 11:30:02 11:32:11 12° 292° (WNW) 11:34:01 145.822/145.860
50 SAT 28 Apr 11:39:32 11:43:34 77° 283° (WNW) 11:47:33 437.505
ESTCUBE 1 28 Apr 11:40:52 11:45:11 46° 99° (E) 11:49:30 437.505/2401.250
Cosmos 2491 28 Apr 11:43:35 11:49:56 21° 276° (W) 11:55:47 435.465 / 435.565
QB50P2 28 Apr 11:46:31 11:50:16 31° 263° (W) 11:54:02 145.880/145.840
ANTELSAT 28 Apr 11:51:03 11:53:47 15° 269° (W) 11:56:21 437.575/2403.000
RS-15 28 Apr 11:53:51 11:59:01 16° 103° (ESE) 12:05:11 29.354- 29.394
ZACube-1 28 Apr 11:55:40 11:58:32 16° 291° (WNW) 12:01:12 437.345
NANOSAT C BR1 28 Apr 12:03:06 12:06:19 20° 265° (W) 12:09:26 145.865
CUBEBUG 1 28 Apr 12:04:43 12:09:07 80° 102° (ESE) 12:13:30 437.445
POPSAT HIP 1 28 Apr 12:08:02 12:11:01 18° 266° (W) 12:13:51 437.405
VELOX 1 28 Apr 12:08:38 12:12:50 41° 286° (WNW) 12:17:00 145.980
BUGSAT 1 28 Apr 12:15:58 12:19:00 20° 265° (W) 12:21:55 437.445
AIST 1 28 Apr 12:22:48 12:26:37 31° 268° (W) 12:30:22
DX 1 28 Apr 12:27:36 12:29:17 12° 292° (WNW) 12:30:42 434.975-435.025
AISAT 28 Apr 12:28:17 12:31:56 24° 289° (WNW) 12:35:30 437.250
TISAT 1 28 Apr 12:31:07 12:34:47 28° 97° (E) 12:38:29 437.305
AIST 2 28 Apr 12:40:41 12:44:50 57° 245° (WSW) 12:48:52 435.215
YUBILEINY 28 Apr 12:44:11 12:49:47 17° 294° (WNW) 12:54:48 435.215
Oscar 19 28 Apr 12:58:47 13:03:30 38° 72° (ENE) 13:08:18 437.125/150
